Regional Weather Roundup
Issued by NWS Cleveland, OH

Home | Current Version | Previous Version | Graphics & Text | Print | Product List | Glossary On
Versions: 1 2 3 4 5 6 7 8 9 10 11 12 13 14 15 16 17 18 19 20 21 22 23 24 25 26 27 28 29 30 31 32 33 34 35 36 37 38 39 40 41 42 43 44 45 46 47 48 49 50
000
ASUS41 KCLE 300900
RWRCLE
OHIO REGIONAL WEATHER ROUNDUP
NATIONAL WEATHER SERVICE WILMINGTON, OH
500 AM EDT THU OCT 30 2014

NOTE: "FAIR" INDICATES FEW OR NO CLOUDS BELOW 12,000 FEET WITH NO
SIGNIFICANT WEATHER AND/OR OBSTRUCTIONS TO VISIBILITY.

OHZ001>008-015>018-024>027-034-035-043-044-301000-
   NORTHWEST OHIO

CITY           SKY/WX    TMP DP  RH WIND       PRES   REMARKS
DEFIANCE       CLOUDY    41  38  89 NW3       30.13S
FINDLAY        CLOUDY    41  37  86 W5        30.11R
TOLEDO EXPRESS CLEAR     39  35  86 NW5       30.12R
TOLEDO METCALF CLEAR     38  33  82 CALM      30.13R
LIMA           CLOUDY    42  36  79 NW6       30.11S
$$

OHZ009>014-019>023-028>033-038-089-301000-
   NORTHEAST OHIO

CITY           SKY/WX    TMP DP  RH WIND       PRES   REMARKS
CLE-HOPKINS    CLOUDY    42  39  89 W6        30.10S
CLE-LAKEFRONT  PTCLDY   N/A N/A N/A NW8       30.07R
CUY CO. ARPT   NOT AVBL
LORAIN-ELYRIA  CLOUDY    40  38  93 W7        30.09S
ASHTABULA      CLOUDY    43  41  93 W5        30.06R
AKRON-CANTON   CLOUDY    43  37  79 NW8       30.07S
WOOSTER        NOT AVBL
MANSFIELD      CLEAR     37  36  96 W5        30.09S
YOUNGSTOWN     CLOUDY    42  39  89 W6        30.05S
$$

OHZ042-051>053-060>062-070>072-077>081-301000-
  SOUTHWEST OHIO

CITY           SKY/WX    TMP DP  RH WIND       PRES   REMARKS
CINC-COVINGTON PTCLDY    44  34  67 NW3       30.13S
CINC-LUNKEN    CLEAR     41  35  79 CALM      30.15S
HAMILTON       MOCLDY    39  36  89 CALM      30.15S
DAYTON         NOT AVBL
WRIGHT-PAT AFB CLOUDY    43  35  73 NW5       30.12S
DAYTON GENERAL CLOUDY    43  35  73 N3        30.12S
WILMINGTON     CLOUDY    42  34  73 NW6       30.11F
$$

OHZ036-037-039>041-045>050-054>059-063>069-073>076-082>088-301000-
  CENTRAL AND SOUTHEAST OHIO

CITY           SKY/WX    TMP DP  RH WIND       PRES   REMARKS
COLUMBUS       CLOUDY    44  35  70 NW6       30.10F
OSU AIRPORT    CLOUDY    43  35  73 NW6       30.11S
BOLTON FIELD   NOT AVBL
RICKENBACK AFB NOT AVBL
NEWARK         CLEAR     36  32  85 CALM      30.10S
MARION         CLOUDY    41  36  82 NW5       30.11S
LANCASTER      CLOUDY    44  35  70 CALM      30.11S
ZANESVILLE     CLEAR     32  29  88 CALM      30.10S
NEW PHILLY     CLEAR     37  34  89 CALM      30.10R
$$



USA.gov is the U.S. government's official web portal to all federal, state and local government web resources and services.